| time (UTC) | temp F | wind direction | speed knots | gust knots | rain 1hr in | rain 24hr in | rain mn in | humidity % | barometer mb |
| 20260901000528 | 92 | 118 | 3.5 | 7.8 | 0.00 | 0.00 | 0.00 | 26 | 1013.5 |
| 20260831235523 | 93 | 109 | 3.5 | 8.7 | 0.00 | 0.00 | 0.00 | 26 | 1013.4 |
| 20260831234519 | 93 | 128 | 3.5 | 6.1 | 0.00 | 0.00 | 0.00 | 25 | 1013.6 |
| 20260831233541 | 94 | 133 | 2.6 | 7.0 | 0.00 | 0.00 | 0.00 | 25 | 1013.5 |
| 20260831232530 | 94 | 146 | 2.6 | 6.1 | 0.00 | 0.00 | 0.00 | 25 | 1013.6 |
| 20260831231524 | 94 | 145 | 1.7 | 6.1 | 0.00 | 0.00 | 0.00 | 25 | 1013.5 |
| 20260831230519 | 94 | 110 | 4.3 | 7.8 | 0.00 | 0.00 | 0.00 | 24 | 1013.6 |
| 20260831225549 | 95 | 133 | 3.5 | 7.8 | 0.00 | 0.00 | 0.00 | 24 | 1013.6 |
| 20260831224524 | 95 | 109 | 5.2 | 9.6 | 0.00 | 0.00 | 0.00 | 25 | 1013.6 |
| 20260831223519 | 94 | 136 | 2.6 | 7.8 | 0.00 | 0.00 | 0.00 | 26 | 1013.7 |
| 20260831222529 | 95 | 128 | 2.6 | 8.7 | 0.00 | 0.00 | 0.00 | 25 | 1013.8 |
| 20260831221524 | 97 | 139 | 3.5 | 8.7 | 0.00 | 0.00 | 0.00 | 24 | 1013.9 |
| 20260831220519 | 95 | 141 | 2.6 | 7.8 | 0.00 | 0.00 | 0.00 | 25 | 1013.8 |
| 20260831215529 | 97 | 157 | 2.6 | 6.1 | 0.00 | 0.00 | 0.00 | 23 | 1013.9 |
| 20260831214524 | 99 | 148 | 2.6 | 6.1 | 0.00 | 0.00 | 0.00 | 22 | 1014.1 |
| 20260831213519 | 99 | 174 | 2.6 | 6.1 | 0.00 | 0.00 | 0.00 | 22 | 1014.1 |
| 20260831212529 | 100 | 130 | 3.5 | 7.8 | 0.00 | 0.00 | 0.00 | 21 | 1014.2 |
| 20260831211524 | 99 | 109 | 3.5 | 7.8 | 0.00 | 0.00 | 0.00 | 22 | 1014.3 |
| 20260831210519 | 98 | 137 | 3.5 | 9.6 | 0.00 | 0.00 | 0.00 | 22 | 1014.4 |
| 20260831205530 | 98 | 109 | 4.3 | 7.8 | 0.00 | 0.00 | 0.00 | 22 | 1014.6 |
| 20260831204524 | 99 | 94 | 4.3 | 7.8 | 0.00 | 0.00 | 0.00 | 23 | 1014.7 |
| 20260831203519 | 98 | 130 | 5.2 | 8.7 | 0.00 | 0.00 | 0.00 | 23 | 1015.0 |
| 20260831202530 | 99 | 124 | 6.1 | 11.3 | 0.00 | 0.00 | 0.00 | 23 | 1015.0 |
| 20260831201545 | 100 | 127 | 4.3 | 8.7 | 0.00 | 0.00 | 0.00 | 22 | 1015.2 |
| 20260831200520 | 100 | 139 | 2.6 | 6.1 | 0.00 | 0.00 | 0.00 | 21 | 1015.2 |
| 20260831195550 | 99 | 128 | 1.7 | 6.1 | 0.00 | 0.00 | 0.00 | 23 | 1015.4 |
| 20260831194524 | 98 | 145 | 4.3 | 11.3 | 0.00 | 0.00 | 0.00 | 24 | 1015.5 |
| 20260831193519 | 97 | 119 | 3.5 | 9.6 | 0.00 | 0.00 | 0.00 | 25 | 1015.7 |
| 20260831192529 | 95 | 145 | 2.6 | 6.1 | 0.00 | 0.00 | 0.00 | 26 | 1015.8 |
| 20260831191524 | 95 | 140 | 6.1 | 13.9 | 0.00 | 0.00 | 0.00 | 26 | 1015.9 |
| 20260831190519 | 96 | 115 | 4.3 | 8.7 | 0.00 | 0.00 | 0.00 | 26 | 1016.0 |
| 20260831185529 | 98 | 143 | 2.6 | 9.6 | 0.00 | 0.00 | 0.00 | 25 | 1016.0 |
| 20260831184604 | 100 | 127 | 5.2 | 8.7 | 0.00 | 0.00 | 0.00 | 24 | 1016.1 |
| 20260831183539 | 99 | 147 | 3.5 | 7.8 | 0.00 | 0.00 | 0.00 | 25 | 1016.1 |
| 20260831182529 | 99 | 157 | 3.5 | 11.3 | 0.00 | 0.00 | 0.00 | 26 | 1016.4 |
| 20260831181524 | 98 | 135 | 2.6 | 7.8 | 0.00 | 0.00 | 0.00 | 27 | 1016.6 |
| 20260831180519 | 98 | 126 | 3.5 | 9.6 | 0.00 | 0.00 | 0.00 | 27 | 1016.8 |
| 20260831175530 | 98 | 152 | 1.7 | 5.2 | 0.00 | 0.00 | 0.00 | 28 | 1016.9 |
| 20260831174525 | 96 | 124 | 2.6 | 7.0 | 0.00 | 0.00 | 0.00 | 29 | 1017.2 |
| 20260831173520 | 96 | 163 | 2.6 | 6.1 | 0.00 | 0.00 | 0.00 | 29 | 1017.3 |
| 20260831172530 | 96 | 126 | 3.5 | 7.0 | 0.00 | 0.00 | 0.00 | 29 | 1017.4 |
| 20260831171525 | 96 | 134 | 4.3 | 8.7 | 0.00 | 0.00 | 0.00 | 28 | 1017.5 |
| 20260831170520 | 95 | 140 | 2.6 | 7.8 | 0.00 | 0.00 | 0.00 | 29 | 1017.6 |
| 20260831165515 | 95 | 139 | 1.7 | 5.2 | 0.00 | 0.00 | 0.00 | 29 | 1017.6 |
| 20260831164525 | 94 | 152 | 1.7 | 7.8 | 0.00 | 0.00 | 0.00 | 30 | 1017.6 |
| 20260831163520 | 94 | 123 | 3.5 | 6.1 | 0.00 | 0.00 | 0.00 | 30 | 1017.7 |
| 20260831162515 | 93 | 161 | 1.7 | 8.7 | 0.00 | 0.00 | 0.00 | 32 | 1017.7 |
| 20260831161525 | 92 | 185 | 2.6 | 7.8 | 0.00 | 0.00 | 0.00 | 31 | 1017.8 |
| 20260831160521 | 92 | 158 | 1.7 | 6.1 | 0.00 | 0.00 | 0.00 | 32 | 1017.7 |
| 20260831155515 | 90 | 143 | 1.7 | 5.2 | 0.00 | 0.00 | 0.00 | 35 | 1017.7 |
| 20260831154525 | 89 | 157 | 1.7 | 6.1 | 0.00 | 0.00 | 0.00 | 36 | 1017.6 |
| 20260831153520 | 88 | 154 | 1.7 | 6.1 | 0.00 | 0.00 | 0.00 | 38 | 1017.5 |
| 20260831152535 | 87 | 145 | 1.7 | 6.1 | 0.00 | 0.00 | 0.00 | 40 | 1017.5 |
| 20260831151545 | 86 | 159 | 1.7 | 7.0 | 0.00 | 0.00 | 0.00 | 43 | 1017.5 |
| 20260831150520 | 84 | 222 | 1.7 | 5.2 | 0.00 | 0.00 | 0.00 | 46 | 1017.4 |
| 20260831145516 | 83 | 135 | 0.9 | 3.5 | 0.00 | 0.00 | 0.00 | 47 | 1017.4 |
| 20260831144525 | 83 | 145 | 1.7 | 7.0 | 0.00 | 0.00 | 0.00 | 49 | 1017.4 |
| 20260831143520 | 81 | 175 | 2.6 | 8.7 | 0.00 | 0.00 | 0.00 | 52 | 1017.4 |
| 20260831142515 | 80 | 147 | 1.7 | 7.0 | 0.00 | 0.00 | 0.00 | 54 | 1017.3 |
| 20260831141525 | 79 | 171 | 2.6 | 7.0 | 0.00 | 0.00 | 0.00 | 56 | 1017.4 |
| 20260831140520 | 77 | 159 | 1.7 | 7.0 | 0.00 | 0.00 | 0.00 | 59 | 1017.2 |
| 20260831135530 | 76 | 161 | 2.6 | 7.0 | 0.00 | 0.00 | 0.00 | 61 | 1017.2 |
| 20260831134524 | 75 | 170 | 2.6 | 5.2 | 0.00 | 0.00 | 0.00 | 63 | 1017.2 |
| 20260831133520 | 74 | 173 | 2.6 | 6.1 | 0.00 | 0.00 | 0.00 | 65 | 1017.2 |
| 20260831132528 | 73 | 162 | 1.7 | 6.1 | 0.00 | 0.00 | 0.00 | 66 | 1017.0 |
| 20260831131524 | 73 | 154 | 1.7 | 7.8 | 0.00 | 0.00 | 0.00 | 66 | 1016.9 |
| 20260831130518 | 72 | 154 | 1.7 | 6.1 | 0.00 | 0.00 | 0.00 | 67 | 1016.7 |
| 20260831125527 | 72 | 159 | 1.7 | 3.5 | 0.00 | 0.00 | 0.00 | 67 | 1016.7 |
| 20260831124520 | 72 | 171 | 1.7 | 5.2 | 0.00 | 0.00 | 0.00 | 67 | 1016.3 |
| 20260831123529 | 71 | 160 | 0.9 | 6.1 | 0.00 | 0.00 | 0.00 | 67 | 1016.3 |
| 20260831122523 | 71 | 177 | 1.7 | 5.2 | 0.00 | 0.00 | 0.00 | 67 | 1016.1 |
| 20260831121538 | 71 | 169 | 1.7 | 3.5 | 0.00 | 0.00 | 0.00 | 67 | 1016.0 |
| 20260831120528 | 71 | 170 | 0.9 | 3.5 | 0.00 | 0.00 | 0.00 | 67 | 1015.9 |
| 20260831115543 | 71 | 158 | 1.7 | 3.5 | 0.00 | 0.00 | 0.00 | 66 | 1015.9 |
| 20260831114518 | 71 | 150 | 1.7 | 6.1 | 0.00 | 0.00 | 0.00 | 66 | 1015.7 |
| 20260831113528 | 72 | 154 | 1.7 | 5.2 | 0.00 | 0.00 | 0.00 | 65 | 1015.6 |
| 20260831112523 | 72 | 156 | 1.7 | 3.5 | 0.00 | 0.00 | 0.00 | 65 | 1015.4 |
| 20260831111523 | 72 | 151 | 0.9 | 3.5 | 0.00 | 0.00 | 0.00 | 63 | 1015.4 |
| 20260831110518 | 72 | 147 | 0.9 | 2.6 | 0.00 | 0.00 | 0.00 | 63 | 1015.4 |
| 20260831105528 | 72 | 151 | 0.9 | 2.6 | 0.00 | 0.00 | 0.00 | 62 | 1015.4 |
| 20260831104544 | 72 | 153 | 0.9 | 2.6 | 0.00 | 0.00 | 0.00 | 62 | 1015.4 |
| 20260831103540 | 72 | 162 | 0.0 | 1.7 | 0.00 | 0.00 | 0.00 | 61 | 1015.3 |
| 20260831102516 | 73 | 167 | 1.7 | 5.2 | 0.00 | 0.00 | 0.00 | 60 | 1015.3 |
| 20260831101547 | 73 | 165 | 1.7 | 3.5 | 0.00 | 0.00 | 0.00 | 60 | 1015.4 |
| 20260831100522 | 73 | 173 | 1.7 | 5.2 | 0.00 | 0.00 | 0.00 | 59 | 1015.3 |
| 20260831095518 | 73 | 168 | 1.7 | 3.5 | 0.00 | 0.00 | 0.00 | 58 | 1015.3 |
| 20260831094528 | 73 | 173 | 1.7 | 5.2 | 0.00 | 0.00 | 0.00 | 58 | 1015.2 |
| 20260831093524 | 73 | 166 | 0.9 | 2.6 | 0.00 | 0.00 | 0.00 | 57 | 1015.3 |
| 20260831092519 | 74 | 158 | 1.7 | 5.2 | 0.00 | 0.00 | 0.00 | 57 | 1015.2 |
| 20260831091515 | 74 | 158 | 1.7 | 3.5 | 0.00 | 0.00 | 0.00 | 56 | 1015.1 |
| 20260831090526 | 74 | 164 | 2.6 | 5.2 | 0.00 | 0.00 | 0.00 | 55 | 1015.0 |
| 20260831085542 | 74 | 179 | 2.6 | 7.8 | 0.00 | 0.00 | 0.00 | 55 | 1014.9 |
| 20260831084517 | 74 | 170 | 2.6 | 7.8 | 0.00 | 0.00 | 0.00 | 54 | 1015.0 |
| 20260831083528 | 74 | 161 | 2.6 | 7.0 | 0.00 | 0.00 | 0.00 | 53 | 1014.9 |
| 20260831082523 | 75 | 167 | 2.6 | 6.1 | 0.00 | 0.00 | 0.00 | 52 | 1014.8 |
| 20260831081519 | 75 | 183 | 2.6 | 7.0 | 0.00 | 0.00 | 0.00 | 51 | 1014.8 |
| 20260831080530 | 75 | 168 | 1.7 | 3.5 | 0.00 | 0.00 | 0.00 | 50 | 1014.8 |
| 20260831075525 | 75 | 171 | 0.9 | 2.6 | 0.00 | 0.00 | 0.00 | 50 | 1014.9 |
| 20260831074541 | 75 | 171 | 1.7 | 5.2 | 0.00 | 0.00 | 0.00 | 49 | 1014.9 |
| 20260831073516 | 75 | 174 | 1.7 | 5.2 | 0.00 | 0.00 | 0.00 | 49 | 1014.8 |
| 20260831072527 | 76 | 180 | 1.7 | 7.0 | 0.00 | 0.00 | 0.00 | 48 | 1014.8 |
| 20260831071523 | 76 | 166 | 1.7 | 3.5 | 0.00 | 0.00 | 0.00 | 48 | 1014.8 |
| 20260831070519 | 76 | 167 | 1.7 | 7.0 | 0.00 | 0.00 | 0.00 | 47 | 1015.0 |
| 20260831065529 | 77 | 168 | 1.7 | 6.1 | 0.00 | 0.00 | 0.00 | 46 | 1014.9 |
| 20260831064525 | 77 | 160 | 1.7 | 6.1 | 0.00 | 0.00 | 0.00 | 46 | 1014.9 |
| 20260831063521 | 77 | 173 | 1.7 | 3.5 | 0.00 | 0.00 | 0.00 | 45 | 1014.9 |
| 20260831062537 | 78 | 170 | 1.7 | 6.1 | 0.00 | 0.00 | 0.00 | 44 | 1014.9 |
| 20260831061527 | 78 | 169 | 1.7 | 6.1 | 0.00 | 0.00 | 0.00 | 44 | 1014.8 |
| 20260831060523 | 78 | 163 | 1.7 | 5.2 | 0.00 | 0.00 | 0.00 | 44 | 1014.9 |
| 20260831055518 | 78 | 156 | 1.7 | 3.5 | 0.00 | 0.00 | 0.00 | 43 | 1015.0 |
| 20260831054529 | 78 | 155 | 0.9 | 3.5 | 0.00 | 0.00 | 0.00 | 43 | 1014.9 |
| 20260831053525 | 79 | 156 | 1.7 | 5.2 | 0.00 | 0.00 | 0.00 | 43 | 1014.9 |
| 20260831052521 | 79 | 158 | 1.7 | 5.2 | 0.00 | 0.00 | 0.00 | 43 | 1014.8 |
| 20260831051516 | 79 | 157 | 0.9 | 2.6 | 0.00 | 0.00 | 0.00 | 44 | 1014.7 |
| 20260831050527 | 79 | 157 | 0.9 | 2.6 | 0.00 | 0.00 | 0.00 | 44 | 1014.7 |
| 20260831045520 | 80 | 141 | 1.7 | 2.6 | 0.00 | 0.00 | 0.00 | 42 | 1014.7 |
| 20260831044528 | 80 | 144 | 0.9 | 1.7 | 0.00 | 0.00 | 0.00 | 42 | 1014.5 |
| 20260831043526 | 80 | 144 | 0.9 | 1.7 | 0.00 | 0.00 | 0.00 | 42 | 1014.5 |
| 20260831042518 | 80 | 0.0 | 0.0 | 0.00 | 0.00 | 0.00 | 42 | 1014.4 | |
| 20260831041609 | 81 | 144 | 0.0 | 0.9 | 0.00 | 0.00 | 0.00 | 41 | 1014.5 |
| 20260831040525 | 81 | 0.0 | 0.0 | 0.00 | 0.00 | 0.00 | 41 | 1014.6 | |
| 20260831035520 | 82 | 144 | 0.0 | 0.9 | 0.00 | 0.00 | 0.00 | 40 | 1014.4 |
| 20260831034516 | 82 | 0.0 | 0.0 | 0.00 | 0.00 | 0.00 | 39 | 1014.3 | |
| 20260831033526 | 82 | 144 | 0.0 | 0.9 | 0.00 | 0.00 | 0.00 | 39 | 1014.2 |
| 20260831032521 | 83 | 144 | 0.9 | 1.7 | 0.00 | 0.00 | 0.00 | 38 | 1014.2 |
| 20260831031517 | 83 | 144 | 0.9 | 2.6 | 0.00 | 0.00 | 0.00 | 37 | 1014.1 |
| 20260831030527 | 84 | 143 | 0.9 | 2.6 | 0.00 | 0.00 | 0.00 | 37 | 1014.1 |
| 20260831025543 | 84 | 139 | 0.9 | 2.6 | 0.00 | 0.00 | 0.00 | 36 | 1014.1 |
| 20260831024518 | 85 | 126 | 0.9 | 1.7 | 0.00 | 0.00 | 0.00 | 36 | 1013.8 |
| 20260831023529 | 85 | 119 | 0.9 | 2.6 | 0.00 | 0.00 | 0.00 | 35 | 1013.7 |
| 20260831022525 | 86 | 110 | 1.7 | 2.6 | 0.00 | 0.00 | 0.00 | 35 | 1013.6 |
| 20260831021521 | 86 | 120 | 1.7 | 5.2 | 0.00 | 0.00 | 0.00 | 34 | 1013.5 |
| 20260831020516 | 86 | 132 | 1.7 | 6.1 | 0.00 | 0.00 | 0.00 | 34 | 1013.3 |
| 20260831015547 | 87 | 124 | 0.9 | 3.5 | 0.00 | 0.00 | 0.00 | 33 | 1013.1 |
| 20260831014523 | 87 | 156 | 1.7 | 5.2 | 0.00 | 0.00 | 0.00 | 33 | 1013.0 |
| 20260831013519 | 87 | 153 | 1.7 | 5.2 | 0.00 | 0.00 | 0.00 | 33 | 1012.8 |
| 20260831012529 | 88 | 141 | 1.7 | 6.1 | 0.00 | 0.00 | 0.00 | 32 | 1012.8 |
| 20260831011525 | 88 | 156 | 1.7 | 3.5 | 0.00 | 0.00 | 0.00 | 32 | 1012.7 |
| 20260831010520 | 89 | 150 | 1.7 | 3.5 | 0.00 | 0.00 | 0.00 | 31 | 1012.7 |
| 20260831005517 | 89 | 151 | 1.7 | 5.2 | 0.00 | 0.00 | 0.00 | 30 | 1012.6 |
| 20260831004030 | 90 | 157 | 1.7 | 7.8 | 0.00 | 0.00 | 0.00 | 29 | 1012.5 |
| 20260831003025 | 91 | 175 | 1.7 | 5.2 | 0.00 | 0.00 | 0.00 | 28 | 1012.5 |
| 20260831002021 | 92 | 156 | 1.7 | 5.2 | 0.00 | 0.00 | 0.00 | 27 | 1012.5 |
| 20260831001037 | 92 | 172 | 3.5 | 7.0 | 0.00 | 0.00 | 0.00 | 26 | 1012.7 |